Weather History for Memphis, TN

Change the Weather History Date:

Saturday, July 20, 2013

  Actual Average Record
Temperature  
Mean Temperature 84 °F 83 °F  
Max Temperature 93 °F 92 °F 104 °F (1986)
Min Temperature 75 °F 74 °F 58 °F (1947)
Degree Days  
Heating Degree Days 0 0  
Month to date heating degree days 0 0  
Since 1 June heating degree days 0 0  
Since 1 July heating degree days 0 0  
Cooling Degree Days 19 18  
Month to date cooling degree days 325 356  
Year to date cooling degree days 1060 1115  
Since 1 June cooling degree days 775 794  
Growing Degree Days 34 (Base 50)    
Moisture  
Dew Point 73 °F    
Average Humidity 67    
Maximum Humidity 88    
Minimum Humidity 46    
Precipitation  
Precipitation 0.00 in 0.14 in 2.15 in (1935)
Month to date precipitation 0.85 2.92  
Year to date precipitation 40.90 30.83  
Snow  
Snow 0.00 in 0.00 in - ()
Month to date snowfall 0.0 0.0  
Since 1 June snowfall 0.0 0.0  
Since 1 July snowfall 0.0 0.0  
Snow Depth 0.00 in    
Sea Level Pressure  
Sea Level Pressure 29.93 in    
Wind  
Wind Speed 8 mph (SSW)    
Max Wind Speed 15 mph    
Max Gust Speed -    
Visibility 10 miles    
Events      
T = Trace of Precipitation, MM = Missing Value Source: NWS Daily Summary

Daily Weather History Graph

Daily Weather History Graph

Search for Another Location

Airport:

Trip Planner

Search our weather history database for the weather conditions in past years. The results will help you decide how hot, cold, wet, or windy it might be!

Date:

Astronomy

Jul. 20, 2013 Rise Set
Actual Time 6:00 AM CDT 8:11 PM CDT
Civil Twilight 5:32 AM CDT 8:40 PM CDT
Nautical Twilight 4:56 AM CDT 9:15 PM CDT
Astronomical Twilight 4:18 AM CDT 9:52 PM CDT
Moon 6:15 PM CDT 3:40 AM CDT
Length of Visible Light 15h 08m
Length of Day
14h 10m
Waxing Gibbous, 94% of the Moon is Illuminated
Jul 20
Waxing Gibbous
Jul 22
Full
Jul 29
Last Quarter
Aug 6
New
Aug 14
First Quarter

Hourly Weather History & Observations

Time (CDT) Temp. Heat Index Dew Point Humidity Pressure Visibility Wind Dir Wind Speed Gust Speed Precip Events Conditions
12:54 AM 77.0 °F - 73.4 °F 89% 29.97 in 10.0 mi South 5.8 mph - N/A   Scattered Clouds
1:54 AM 75.2 °F - 71.6 °F 89% 29.96 in 10.0 mi South 5.8 mph - N/A   Scattered Clouds
2:54 AM 75.2 °F - 71.6 °F 89% 29.95 in 10.0 mi South 5.8 mph - N/A   Scattered Clouds
3:54 AM 75.2 °F - 71.6 °F 89% 29.95 in 10.0 mi SSW 8.1 mph - N/A   Scattered Clouds
4:54 AM 75.2 °F - 71.2 °F 87% 29.96 in 10.0 mi SSW 6.9 mph - N/A   Partly Cloudy
5:54 AM 75.2 °F - 71.6 °F 89% 29.96 in 9.0 mi SSW 6.9 mph - N/A   Scattered Clouds
6:54 AM 76.6 °F - 71.8 °F 85% 29.97 in 10.0 mi South 8.1 mph - N/A   Scattered Clouds
7:54 AM 80.1 °F 83.8 °F 72.0 °F 76% 29.97 in 10.0 mi SSW 8.1 mph - N/A   Scattered Clouds
8:54 AM 82.9 °F 88.0 °F 72.0 °F 69% 29.97 in 10.0 mi Variable 6.9 mph - N/A   Partly Cloudy
9:54 AM 83.8 °F 88.6 °F 70.9 °F 65% 29.98 in 10.0 mi West 9.2 mph - N/A   Scattered Clouds
10:54 AM 82.9 °F 89.4 °F 73.9 °F 74% 29.97 in 10.0 mi WSW 11.5 mph - N/A   Scattered Clouds
11:54 AM 84.0 °F 91.9 °F 75.0 °F 74% 29.96 in 10.0 mi SW 9.2 mph - N/A   Scattered Clouds
12:54 PM 84.9 °F 93.3 °F 75.0 °F 72% 29.96 in 10.0 mi SW 8.1 mph - N/A   Mostly Cloudy
1:54 PM 87.1 °F 95.4 °F 73.9 °F 65% 29.93 in 10.0 mi WSW 11.5 mph - N/A   Scattered Clouds
2:54 PM 82.9 °F 90.2 °F 75.0 °F 77% 29.92 in 10.0 mi Calm Calm - N/A   Mostly Cloudy
3:54 PM 87.1 °F 99.8 °F 78.1 °F 74% 29.88 in 10.0 mi SSW 6.9 mph - N/A   Scattered Clouds
4:54 PM 93.0 °F 99.0 °F 70.0 °F 47% 29.85 in 10.0 mi SSW 15.0 mph - N/A   Scattered Clouds
5:54 PM 91.9 °F 96.9 °F 69.1 °F 47% 29.85 in 10.0 mi SSW 12.7 mph - N/A   Scattered Clouds
6:54 PM 90.0 °F 96.4 °F 71.1 °F 54% 29.88 in 10.0 mi WSW 9.2 mph - N/A   Scattered Clouds
7:54 PM 88.0 °F 93.8 °F 71.1 °F 57% 29.89 in 10.0 mi SW 5.8 mph - N/A   Scattered Clouds
8:54 PM 86.0 °F 91.5 °F 71.1 °F 61% 29.90 in 10.0 mi SW 4.6 mph - N/A   Scattered Clouds
9:54 PM 82.9 °F 88.0 °F 72.0 °F 69% 29.93 in 10.0 mi SSW 3.5 mph - N/A   Mostly Cloudy
10:54 PM 82.0 °F 86.7 °F 72.0 °F 71% 29.93 in 10.0 mi SSW 3.5 mph - N/A   Scattered Clouds
11:54 PM 81.0 °F 85.2 °F 72.0 °F 74% 29.93 in 10.0 mi SW 6.9 mph - N/A   Scattered Clouds